This demonstration page uses our WeatherBlox Daily Observations layout. Learn more.

Left ArrowRight Arrow

39.08367, -84.50855

Hourly Observations for December 2, 2021

Temp ( °F °C ) Dew Point ( °F °C ) Humidity (%) Winds ( mph kmh ) Pressure ( in mb ) Visibility ( mi km ) Precip ( " mm )
12:53 am 00:53 Partly Cloudy 49 9.4 47 8.3 93 93 SSW 7 11 29.92 1013 10 16 N/A
1:26 am 01:26 Mostly Cloudy 49 9.4 48 8.9 97 97 undefined N/A 29.93 1013 9 14 N/A
1:53 am 01:53 Mostly Cloudy 51 10.6 49 9.4 92 92 SW 9 15 29.91 1013 9 14 N/A
2:53 am 02:53 Cloudy 52 11.1 50 10 93 93 SSW 12 19 29.91 1013 8 13 N/A
3:37 am 03:37 Cloudy 52 11.1 50 10 93 93 SSW 13 20 29.91 1013 8 13 N/A
3:53 am 03:53 Cloudy 52 11.1 50 10 93 93 SW 14 22 29.90 1013 8 13 N/A
4:45 am 04:45 Partly Cloudy 51 10.6 49 9.4 92 92 SW 10 17 29.90 1012 7 11 N/A
4:53 am 04:53 Mostly Clear 50 10 49 9.4 96 96 SW 9 15 29.89 1012 7 11 N/A
5:53 am 05:53 Clear 50 10 49 9.4 96 96 SSW 12 19 29.87 1012 7 11 N/A
6:53 am 06:53 Clear 50 10 49 9.4 96 96 SSW 12 19 29.88 1012 7 11 N/A
7:53 am 07:53 Sunny 50 10 49 9.4 96 96 SSW 15 24 29.87 1011 10 16 N/A
8:53 am 08:53 Sunny 52 11.1 49 9.4 89 89 SSW 14 22 29.87 1012 10 16 N/A
9:53 am 09:53 Mostly Cloudy 55 12.8 49 9.4 80 80 SW 13 20 29.89 1012 10 16 N/A
10:53 am 10:53 Sunny 57 13.9 48 8.9 72 72 SW 17 28 29.87 1012 10 16 N/A
11:53 am 11:53 Sunny 61 16.1 48 8.9 63 63 SW 9 15 29.84 1011 10 16 N/A
12:53 pm 12:53 Mostly Cloudy 62 16.7 47 8.3 58 58 WSW 10 17 29.84 1011 10 16 N/A
1:53 pm 13:53 Sunny 65 18.3 47 8.3 52 52 W 12 19 29.82 1010 10 16 N/A
2:53 pm 14:53 Mostly Cloudy 64 17.8 47 8.3 54 54 WSW 10 17 29.82 1010 10 16 N/A
3:53 pm 15:53 Mostly Sunny 65 18.3 46 7.8 51 51 W 12 19 29.84 1011 10 16 N/A
4:53 pm 16:53 Sunny 62 16.7 44 6.7 52 52 W 10 17 29.87 1012 10 16 N/A
5:53 pm 17:53 Clear 60 15.6 44 6.7 56 56 W 6 9 29.91 1013 10 16 N/A
6:53 pm 18:53 Clear 59 15 43 6.1 56 56 NW 6 9 29.94 1014 10 16 N/A
7:53 pm 19:53 Clear 57 13.9 43 6.1 60 60 VRB 6 9 29.98 1015 10 16 N/A
8:53 pm 20:53 Clear 55 12.8 41 5 59 59 VRB 5 7 29.99 1016 10 16 N/A
9:53 pm 21:53 Clear 53 11.7 40 4.4 61 61 NNW 5 7 30.03 1017 10 16 N/A
10:53 pm 22:53 Clear 51 10.6 38 3.3 61 61 N N/A 30.04 1017 10 16 N/A
11:53 pm 23:53 Clear 45 7.2 38 3.3 77 77 N N/A 30.05 1018 10 16 N/A

Powered by AerisWeather